www.pogodaiklimat.ru

Погода и климат >> Архив погоды >> Пакистан >> Badin


ПОГОДА в Badin

  • Прогноз погоды в Badin
  • Монитор погоды в Badin
  • Климат города

АРХИВ ПОГОДЫ в Badin

Время (UTC), дата Ветер
(напр.,м/с)
 
Видим.   Явления Облачность Т
(С)
Тd
(С)
f
(%)
Тe
(С)
Тes
(С)
Комфортность P
(гПа)
Po
(гПа)
Тmin
(С)
Tmax
(С)
R
(мм)
R24
(мм)
S
(см)
00 12.12 С 1 4000 м ясно +15.0 +12.3 84 +15 +15 1012.7 1011.4
03 12.12 ЮЗ 1 10 км ясно +16.5 +12.0 75 +18 +19 1014.5 1013.2 +14.5
06 12.12 ЮЗ 1 10 км ясно +22.0 +12.4 54 +24 +35 комфорт 1015.6 1014.4
09 12.12 З 1 10 км ясно +26.0 +8.6 33 +26 +36 жарко 1014.0 1014.0
12 12.12 штиль 0 10 км ясно +25.5 +6.4 29 +25 +26 комфорт 1012.4 1011.1 +27.5
15 12.12 штиль 0 4000 м ясно +20.0 +8.6 48 +21 +21 комфорт 1013.6 1014.0
18 12.12 штиль 0 4000 м ясно +16.0 +10.4 69 +16 +16 1014.9 1014.8
21 12.12 штиль 0 4000 м ясно +14.5 +10.7 78 +14 +14 1013.9 1014.0
00 13.12 штиль 0 4000 м ясно +13.0 +10.1 83 +13 +13 1013.2 1011.9
03 13.12 штиль 0 10 км ясно +13.5 +9.6 77 +13 +14 1014.8 1013.5 +12.5
06 13.12 С 1 10 км 5/0
[Ac trans]
+20.0 +6.1 40 +22 +30 комфорт 1015.0 1000.0
09 13.12 С 1 10 км 6/0
[Ac trans]
+24.0 +5.3 30 +24 +30 комфорт 1014.4 1000.0
12 13.12 штиль 0 10 км 6/0
[Ac trans]
+22.5 +5.8 34 +23 +23 комфорт 1012.9 1000.0 +24.5
15 13.12 штиль 0 4000 м 4/0
[Ac trans]
+18.0 +8.3 53 +18 +18 1014.1 1000.0
18 13.12 штиль 0 4000 м ясно +16.5 +9.9 65 +16 +16 1015.4 1000.0
21 13.12 штиль 0 4000 м ясно +15.0 +11.3 79 +15 +15 1014.2 1014.0
00 14.12 С 1 4000 м ясно +12.5 +9.6 82 +12 +12 1013.0 1011.7
03 14.12 С 1 10 км ясно +13.0 +9.1 77 +14 +15 1015.9 1014.6 +12.1
06 14.12 С 1 10 км ясно +17.5 +8.9 57 +19 +28 1019.1 1017.3
09 14.12 С 3 10 км ясно +19.5 +7.9 47 +21 +27 комфорт 1017.8 1018.0
12 14.12 С 1 10 км ясно +19.0 +9.6 54 +21 +21 комфорт 1016.1 1014.8 +20.1
15 14.12 штиль 0 4000 м ясно +16.5 +9.9 65 +16 +16 1017.3 1000.0
18 14.12 С 1 4000 м ясно +14.0 +10.2 78 +15 +15 1018.7 1000.0
21 14.12 штиль 0 4000 м ясно +12.5 +10.6 88 +12 +12 1017.7 1018.0
00 15.12 С 1 4000 м ясно +11.0 +9.0 87 +11 +11 1016.7 1015.4
03 15.12 С 1 10 км ясно +11.5 +8.5 82 +11 +12 1019.7 1018.4 +10.5
06 15.12 С 1 10 км ясно +16.5 +8.8 60 +17 +27 1022.2 1019.7
09 15.12 СВ 3 10 км ясно +21.5 +7.0 39 +22 +29 комфорт 1019.4 1019.0
12 15.12 СВ 1 10 км ясно +20.0 +7.4 44 +22 +23 комфорт 1017.6 1016.3 +22.0
15 15.12 С 1 4000 м ясно +16.5 +8.8 60 +18 +18 1018.9 1000.0
18 15.12 С 1 4000 м ясно +14.0 +9.1 72 +15 +15 1020.7 1000.0
21 15.12 С 1 4000 м ясно +12.5 +9.6 82 +13 +13 1019.8 1000.0
00 16.12 С 1 4000 м ясно +11.0 +7.9 81 +12 +12 1019.2 1017.8
03 16.12 С 1 10 км ясно +11.5 +11.3 99 +12 +13 1022.5 1021.1 +10.5
06 16.12 С 1 10 км ясно +17.5 +6.4 48 +19 +28 1023.2 1021.6
09 16.12 С 2 10 км ясно +22.0 +9.0 43 +23 +31 комфорт 1020.2 1020.0
12 16.12 С 3 10 км ясно +21.5 +7.0 39 +22 +23 комфорт 1018.4 1017.1 +23.0
15 16.12 С 1 4000 м ясно +17.5 +7.7 53 +19 +19 1019.8 1020.0
18 16.12 С 1 4000 м ясно +15.5 +8.1 61 +17 +17 1021.1 1020.9
21 16.12 С 1 4000 м ясно +14.0 +9.1 72 +14 +14 1020.2 1020.0
00 17.12 С 1 4000 м ясно +11.5 +7.9 79 +12 +12 1019.0 1017.6
03 17.12 С 1 10 км ясно +12.0 +6.8 70 +12 +13 1021.9 1020.5 +11.0
06 17.12 СВ 1 10 км ясно +18.5 +6.5 45 +20 +30 1023.1 1021.3
09 17.12 СВ 2 10 км ясно +23.5 +4.4 29 +23 +31 комфорт 1020.0 1020.0
12 17.12 СВ 1 10 км ясно +22.5 +4.3 30 +23 +23 комфорт 1018.1 1016.8 +24.1
15 17.12 штиль 0 4000 м ясно +18.5 +6.5 45 +19 +19 1019.2 1007.9
18 17.12 С 1 4000 м ясно +16.5 +7.6 56 +18 +18 1020.5 1000.0
21 17.12 С 1 4000 м ясно +15.0 +9.2 68 +16 +16 1019.5 1000.0
00 18.12 С 1 4000 м ясно +13.5 +8.5 72 +14 +14 1018.6 1017.2
03 18.12 С 1 10 км ясно +14.0 +8.0 67 +15 +16 1020.3 1019.0 +13.1
06 18.12 СВ 2 10 км 6/0
[Ac trans]
+20.0 +6.1 40 +21 +27 комфорт 1022.3 1022.0
09 18.12 СВ 1 10 км 6/0
[Ac trans]
+25.0 +5.5 29 +25 +31 комфорт 1019.9 1020.0
12 18.12 СВ 1 10 км 8/0
[Ac trans]
+23.5 +5.9 32 +24 +24 комфорт 1017.8 1016.5 +25.5
15 18.12 С 1 4000 м 8/0
[Ac trans]
+19.0 +5.9 42 +21 +21 комфорт 1019.1 1000.0
18 18.12 СВ 1 4000 м 5/0
[Ac trans]
+16.5 +7.6 56 +18 +18 1020.4 1000.0
21 18.12 С 1 4000 м ясно +15.0 +9.2 68 +16 +16 1019.0 1019.0

 

Местоположение метеостанции Badin (Пакистан): широта 24.63 долгота 68.90 высота над уровнем моря 11 м.

В архиве по умолчанию представлена погода в Badin за последнюю неделю. Архивные данные за месяц целиком и за предыдущие месяцы, начиная с января 2011 года, Вы можете получить, выбрав интересующий диапазон дат из раскрывающегося списка и нажав кнопку "Ввод!".

Внимание! Время в таблицах - всемирное. Для получения местного времени необходимо прибавить поправку, которая в Badin равна 5 ч.

Смотрите также архив погоды в соседних городах и на ближайших метеорологических станциях:

Погода в Hyderabad (Пакистан) (96 км)
Погода в Chhor (Пакистан) (133 км)
Погода в Naliya (Gujarat, Индия) (154 км)
Погода в Bhuj-Rudramata (Gujarat, Индия) (172 км)
Погода в Karachi (Пакистан) (181 км)
Погода в Nawabshah (Пакистан) (188 км)
Погода в Mandvi (Gujarat, Индия) (205 км)
Погода в Kandla (Gujarat, Индия) (209 км)
Погода в New Kandla (Gujarat, Индия) (226 км)
Погода в Okha (Gujarat, Индия) (240 км)

Пояснения к столбцам:

Ветер - указаны скорость ветра в м/с - средняя за 10 мин, порывы в срок и между сроками (в фигурных скобках) и направление, откуда дует ветер: С - северный, СВ - северо-восточный, В - восточный, ЮВ - юго-восточный, Ю - южный, ЮЗ - юго-западный, З - западный, СЗ - северо-западный.
Видимость - горизонтальная дальность видимости в метрах или километрах. При видимости от 1 до 10 км при отсутствии осадков обычно наблюдается дымка, при ухудшении видимости до 1 км и менее - туман. В сухую погоду видимость может ухудшаться дымом, пылью или мглою.
Явления - указаны атмосферные явления, наблюдавшиеся в срок или в последний час перед сроком; фигурными скобками обозначены явления, наблюдавшиеся между сроками (за 1-3 часа до срока); квадратными скобками обозначены град или гололедные отложения с указанием их диаметра в мм.
Облачность - указаны через наклонную черту общая и нижняя облачность в баллах и высота нижней границы облаков в метрах; квадратными скобками обозначены формы облаков: Ci - перистые, Cs - перисто-слоистые, Cc - перисто-кучевые, Ac - высококучевые, As - высокослоистые, Sc - слоисто-кучевые, Ns - слоисто-дождевые, Cu - кучевые, Cb - кучево-дождевые. Подробнее классификацию облаков см. в Атласе облаков (PDF).
T - Температура воздуха - температура, измеренная на высоте 2 м над землей.
Td - Температура точки росы - температура, при понижении до которой содержащийся в воздухе водяной пар достигнет насыщения.
f - Относительная влажность воздуха - влажноcть воздуха, измеренная на высоте 2 м над землей.
Te - Эффективная температура - температура, которую ощущает одетый по сезону человек в тени. Характеристика душности погоды. При расчете учитывается влияние влажности воздуха и скорости ветра на теплоощущения человека.
Tes - Эффективная температура на солнце - температура, которую ощущает человек, с поправкой на солнечный нагрев. Характеристика знойности погоды. Зависит от высоты солнца над горизонтом, облачности и скорости ветра. Ночью, в пасмурную погоду, а также при ветре 12 м/с и более поправка равна нулю.
P - Атмосферное давление - приведенное к уровню моря атмосферное давление.
Po - Атмосферное давление - измеренное на уровне метеостанции атмосферное давление.
Tmin - Минимальная температура - минимум температуры воздуха на высоте 2 м над землей.
Tmax - Максимальная температура - максимум температуры воздуха на высоте 2 м над землей.
R - Количество осадков - Количество выпавших осадков за период времени, мм. При наведении курсора мыши на число - период времени, за который выпало указанное количество осадков.
R24 - Количество осадков - Количество выпавших осадков за 24 часа, мм.
S - Снежный покров - Высота снежного покрова, см. При наведении курсора мыши на число - состояние снежного покрова и степень покрытия местности в баллах.